R31 EFRO-EFRO

Flight info

Callsign R31
Flight time 0h 40m
Altitude 2000
Route JERJO EFSO TC ROTKO/N0300F150 IFR ROAP
Aircraft HAWK/M-SDGIRY/C

Departure

Time 2026-05-06 17:36
Airport Rovaniemi Airport (EFRO)

Arrival

Time 2026-05-06 18:16
Airport Rovaniemi Airport (EFRO)
Time Latitude Longitude Altitude Speed Heading
2026-05-06 17:27 66.57072 25.83159 653 ft 0 kts 261°
2026-05-06 17:32 66.57072 25.83158 653 ft 0 kts 261°
2026-05-06 17:32 66.57080 25.83121 654 ft 6 kts 333°
2026-05-06 17:32 66.57126 25.83134 653 ft 6 kts 63°
2026-05-06 17:33 66.57141 25.83233 651 ft 6 kts 34°
2026-05-06 17:33 66.57176 25.83260 651 ft 4 kts 10°
2026-05-06 17:33 66.57223 25.83257 651 ft 10 kts 355°
2026-05-06 17:33 66.57304 25.83244 649 ft 12 kts 30°
2026-05-06 17:34 66.57315 25.83473 644 ft 17 kts 98°
2026-05-06 17:34 66.57296 25.83810 638 ft 21 kts 97°
2026-05-06 17:34 66.57281 25.84121 638 ft 10 kts 97°
2026-05-06 17:34 66.57258 25.84252 638 ft 7 kts 136°
2026-05-06 17:35 66.57190 25.84345 637 ft 16 kts 173°
2026-05-06 17:35 66.57037 25.84095 633 ft 56 kts 216°
2026-05-06 17:35 66.56435 25.82949 679 ft 155 kts 217°
2026-05-06 17:36 66.54033 25.78058 2110 ft 276 kts 237°
2026-05-06 17:36 66.53979 25.73411 1903 ft 281 kts 294°
2026-05-06 17:36 66.55358 25.70261 1946 ft 272 kts 339°
2026-05-06 17:36 66.57198 25.69487 1962 ft 268 kts 353°
2026-05-06 17:37 66.59014 25.68891 1919 ft 259 kts 352°
2026-05-06 17:37 66.60769 25.68274 1923 ft 251 kts 351°
2026-05-06 17:37 66.62524 25.67616 1890 ft 259 kts 351°
2026-05-06 17:37 66.64330 25.66902 1937 ft 264 kts 351°
2026-05-06 17:38 66.66140 25.66171 2122 ft 262 kts 350°
2026-05-06 17:38 66.67946 25.65431 2200 ft 265 kts 350°
2026-05-06 17:38 66.69798 25.65589 2080 ft 273 kts 16°
2026-05-06 17:38 66.71536 25.67555 2079 ft 275 kts 26°
2026-05-06 17:39 66.73248 25.69646 2064 ft 278 kts 26°
2026-05-06 17:39 66.74982 25.71813 2084 ft 276 kts 26°
2026-05-06 17:39 66.76669 25.73957 2060 ft 267 kts 27°
2026-05-06 17:39 66.78297 25.76104 1996 ft 260 kts 28°
2026-05-06 17:40 66.79831 25.78526 1919 ft 261 kts 37°
2026-05-06 17:40 66.81261 25.81403 1885 ft 263 kts 39°
2026-05-06 17:40 66.82675 25.84332 1941 ft 261 kts 38°
2026-05-06 17:40 66.84230 25.86712 1943 ft 261 kts 29°
2026-05-06 17:41 66.85821 25.88919 2027 ft 259 kts 28°
2026-05-06 17:41 66.87411 25.91064 2072 ft 259 kts 28°
2026-05-06 17:41 66.89017 25.93187 2042 ft 261 kts 27°
2026-05-06 17:41 66.90639 25.95299 2059 ft 262 kts 27°
2026-05-06 17:42 66.92261 25.97385 2127 ft 260 kts 27°
2026-05-06 17:42 66.93880 25.99498 2133 ft 261 kts 28°
2026-05-06 17:42 66.95474 26.01691 2206 ft 260 kts 29°
2026-05-06 17:42 66.97053 26.03925 2352 ft 259 kts 29°
2026-05-06 17:43 66.98649 26.06220 2736 ft 267 kts 30°
2026-05-06 17:43 67.00273 26.08587 3005 ft 269 kts 30°
2026-05-06 17:43 67.01865 26.10932 3016 ft 259 kts 30°
2026-05-06 17:43 67.03384 26.13197 2851 ft 257 kts 30°
2026-05-06 17:44 67.04907 26.15479 2837 ft 248 kts 30°
2026-05-06 17:44 67.06375 26.17721 2793 ft 243 kts 31°
2026-05-06 17:44 67.07804 26.19967 2800 ft 236 kts 31°
2026-05-06 17:44 67.09200 26.22130 2772 ft 234 kts 31°
2026-05-06 17:45 67.10606 26.24320 2856 ft 239 kts 31°
2026-05-06 17:45 67.12065 26.26618 2828 ft 251 kts 32°
2026-05-06 17:45 67.13568 26.28996 2947 ft 254 kts 32°
2026-05-06 17:45 67.15076 26.31384 2947 ft 255 kts 32°
2026-05-06 17:46 67.16591 26.33781 2916 ft 256 kts 32°
2026-05-06 17:46 67.18110 26.36183 2925 ft 256 kts 31°
2026-05-06 17:46 67.19629 26.38583 2913 ft 257 kts 31°
2026-05-06 17:46 67.21155 26.40994 2894 ft 257 kts 31°
2026-05-06 17:47 67.22677 26.43404 2909 ft 257 kts 32°
2026-05-06 17:47 67.24197 26.45821 2927 ft 256 kts 32°
2026-05-06 17:47 67.25193 26.49334 2862 ft 253 kts 72°
2026-05-06 17:47 67.25741 26.53677 2834 ft 255 kts 72°
2026-05-06 17:48 67.26283 26.58032 2841 ft 255 kts 72°
2026-05-06 17:48 67.26822 26.62398 2858 ft 255 kts 72°
2026-05-06 17:48 67.27361 26.66770 2747 ft 256 kts 72°
2026-05-06 17:48 67.27849 26.69526 2458 ft 250 kts 49°
2026-05-06 17:49 67.29392 26.70970 2066 ft 245 kts 359°
2026-05-06 17:49 67.31047 26.70144 1873 ft 238 kts 348°
2026-05-06 17:49 67.32648 26.69617 1837 ft 224 kts 333°
2026-05-06 17:49 67.33946 26.65729 1728 ft 205 kts 304°
2026-05-06 17:50 67.34704 26.64573 1569 ft 184 kts 358°
2026-05-06 17:50 67.35859 26.64441 1404 ft 153 kts 345°
2026-05-06 17:50 67.36832 26.63732 1106 ft 140 kts 345°
2026-05-06 17:50 67.37781 26.63078 874 ft 142 kts 345°
2026-05-06 17:51 67.38744 26.62421 677 ft 142 kts 345°
2026-05-06 17:51 67.39667 26.61788 694 ft 150 kts 345°
2026-05-06 17:51 67.40836 26.61000 1596 ft 203 kts 345°
2026-05-06 17:51 67.42153 26.58800 1963 ft 250 kts 295°
2026-05-06 17:52 67.42153 26.54627 2513 ft 228 kts 253°
2026-05-06 17:52 67.41152 26.51674 2494 ft 227 kts 198°
2026-05-06 17:52 67.39585 26.52011 2468 ft 232 kts 165°
2026-05-06 17:52 67.37973 26.53122 2514 ft 249 kts 166°
2026-05-06 17:53 67.36259 26.54314 2372 ft 258 kts 165°
2026-05-06 17:53 67.34704 26.56202 2522 ft 235 kts 131°
2026-05-06 17:53 67.34262 26.59916 2221 ft 214 kts 79°
2026-05-06 17:53 67.34758 26.63287 1688 ft 189 kts 65°
2026-05-06 17:54 67.35742 26.64657 1410 ft 161 kts 345°
2026-05-06 17:54 67.36762 26.63748 1087 ft 146 kts 344°
2026-05-06 17:54 67.37688 26.63131 882 ft 139 kts 346°
2026-05-06 17:54 67.38656 26.62483 689 ft 144 kts 345°
2026-05-06 17:55 67.39604 26.61846 682 ft 154 kts 346°
2026-05-06 17:55 67.40776 26.61012 1644 ft 195 kts 343°
2026-05-06 17:55 67.42271 26.59924 3036 ft 244 kts 343°
2026-05-06 17:55 67.43638 26.57697 5624 ft 231 kts 307°
2026-05-06 17:56 67.44184 26.53824 7809 ft 249 kts 272°
2026-05-06 17:56 67.43632 26.49189 8588 ft 294 kts 234°
2026-05-06 17:56 67.41938 26.46234 8861 ft 289 kts 204°
2026-05-06 17:56 67.40127 26.44333 8995 ft 274 kts 203°
2026-05-06 17:57 67.38400 26.42597 8904 ft 265 kts 203°
2026-05-06 17:57 67.36715 26.40828 8802 ft 259 kts 204°
2026-05-06 17:57 67.35057 26.38953 8648 ft 260 kts 206°
2026-05-06 17:57 67.33319 26.36925 8828 ft 285 kts 205°
2026-05-06 17:58 67.31481 26.34852 8989 ft 290 kts 205°
2026-05-06 17:58 67.29622 26.32722 9044 ft 295 kts 205°
2026-05-06 17:58 67.27711 26.30496 10255 ft 304 kts 206°
2026-05-06 17:58 67.25726 26.28254 12158 ft 321 kts 205°
2026-05-06 17:59 67.23575 26.25832 13560 ft 347 kts 206°
2026-05-06 17:59 67.21328 26.23275 14622 ft 360 kts 206°
2026-05-06 17:59 67.19026 26.20623 14904 ft 363 kts 206°
2026-05-06 17:59 67.16764 26.17990 14906 ft 351 kts 206°
2026-05-06 18:00 67.14570 26.15432 14941 ft 340 kts 207°
2026-05-06 18:00 67.12432 26.12939 15030 ft 337 kts 207°
2026-05-06 18:00 67.10248 26.10391 15033 ft 353 kts 206°
2026-05-06 18:00 67.08023 26.07809 15192 ft 356 kts 206°
2026-05-06 18:01 67.05742 26.05128 15106 ft 362 kts 207°
2026-05-06 18:01 67.03451 26.02388 15099 ft 364 kts 207°
2026-05-06 18:01 67.01117 25.99788 15063 ft 368 kts 203°
2026-05-06 18:01 66.98719 25.97509 15087 ft 369 kts 202°
2026-05-06 18:02 66.96306 25.95267 15113 ft 364 kts 202°
2026-05-06 18:02 66.94003 25.93126 15071 ft 339 kts 202°
2026-05-06 18:02 66.91865 25.91140 15009 ft 316 kts 202°
2026-05-06 18:02 66.89819 25.89222 13938 ft 323 kts 202°
2026-05-06 18:03 66.87659 25.87074 12170 ft 338 kts 204°
2026-05-06 18:03 66.85563 25.84837 11458 ft 319 kts 205°
2026-05-06 18:03 66.83501 25.82685 10066 ft 323 kts 194°
2026-05-06 18:03 66.81305 25.83595 8663 ft 328 kts 152°
2026-05-06 18:04 66.79656 25.87466 7539 ft 322 kts 131°
2026-05-06 18:04 66.78251 25.91715 6744 ft 309 kts 130°
2026-05-06 18:04 66.76901 25.95852 5943 ft 299 kts 130°
2026-05-06 18:04 66.75611 25.99852 5200 ft 289 kts 129°
2026-05-06 18:05 66.74348 26.03773 4290 ft 286 kts 129°
2026-05-06 18:05 66.72928 26.07000 3843 ft 265 kts 156°
2026-05-06 18:05 66.71234 26.07649 3711 ft 243 kts 187°
2026-05-06 18:05 66.69627 26.06797 3552 ft 231 kts 193°
2026-05-06 18:06 66.68151 26.05346 3338 ft 228 kts 212°
2026-05-06 18:06 66.66871 26.02946 3029 ft 230 kts 217°
2026-05-06 18:06 66.65591 26.00463 2711 ft 235 kts 217°
2026-05-06 18:06 66.64273 25.97932 2433 ft 241 kts 217°
2026-05-06 18:07 66.62920 25.95341 2102 ft 242 kts 217°
2026-05-06 18:07 66.61637 25.92886 1750 ft 222 kts 217°
2026-05-06 18:07 66.60462 25.90628 1386 ft 207 kts 217°
2026-05-06 18:07 66.59465 25.88700 1126 ft 164 kts 217°
2026-05-06 18:08 66.58607 25.87055 911 ft 145 kts 215°
2026-05-06 18:08 66.57838 25.85611 743 ft 134 kts 216°
2026-05-06 18:08 66.57047 25.84081 820 ft 166 kts 216°
2026-05-06 18:08 66.55918 25.81958 1685 ft 239 kts 216°
2026-05-06 18:09 66.54377 25.79248 2606 ft 310 kts 215°
2026-05-06 18:09 66.52552 25.76389 2921 ft 292 kts 201°
2026-05-06 18:09 66.50628 25.76405 3000 ft 277 kts 159°
2026-05-06 18:09 66.49270 25.79652 2886 ft 273 kts 122°
2026-05-06 18:10 66.48276 25.83653 2893 ft 266 kts 123°
2026-05-06 18:10 66.47350 25.87598 2907 ft 261 kts 110°
2026-05-06 18:10 66.47343 25.92058 2883 ft 264 kts 69°
2026-05-06 18:10 66.48563 25.95460 2906 ft 270 kts 32°
2026-05-06 18:11 66.50177 25.98013 2902 ft 285 kts 32°
2026-05-06 18:11 66.51871 26.00835 2893 ft 299 kts 34°
2026-05-06 18:11 66.53623 26.03819 2872 ft 308 kts 34°
2026-05-06 18:11 66.55410 26.06800 3010 ft 310 kts 34°
2026-05-06 18:12 66.57204 26.09863 3023 ft 314 kts 34°
2026-05-06 18:12 66.59006 26.13002 3067 ft 315 kts 35°
2026-05-06 18:12 66.60786 26.16109 3101 ft 309 kts 35°
2026-05-06 18:12 66.62711 26.18220 2965 ft 303 kts
2026-05-06 18:13 66.64518 26.16665 2921 ft 267 kts 319°
2026-05-06 18:13 66.65764 26.13388 2919 ft 255 kts 312°
2026-05-06 18:13 66.66877 26.10019 2892 ft 246 kts 300°
2026-05-06 18:13 66.67295 26.05998 2919 ft 234 kts 264°
2026-05-06 18:14 66.66501 26.02694 2847 ft 227 kts 221°
2026-05-06 18:14 66.65285 26.00127 2721 ft 229 kts 219°
2026-05-06 18:14 66.64017 25.97599 2400 ft 238 kts 216°
2026-05-06 18:14 66.62723 25.95040 2077 ft 229 kts 218°
2026-05-06 18:15 66.61511 25.92668 1742 ft 212 kts 217°
2026-05-06 18:15 66.60381 25.90500 1402 ft 197 kts 217°
2026-05-06 18:15 66.59359 25.88506 1146 ft 171 kts 217°
2026-05-06 18:15 66.58516 25.86882 897 ft 142 kts 214°
2026-05-06 18:16 66.57763 25.85471 720 ft 132 kts 215°
2026-05-06 18:16 66.57035 25.84084 637 ft 120 kts 217°
2026-05-06 18:16 66.56478 25.83043 633 ft 80 kts 214°
2026-05-06 18:16 66.56311 25.82689 637 ft 14 kts 219°
2026-05-06 18:17 66.56297 25.82561 640 ft 6 kts 302°
2026-05-06 18:17 66.56316 25.82495 639 ft 4 kts 304°
2026-05-06 18:17 66.56349 25.82372 637 ft 14 kts 304°
2026-05-06 18:17 66.56434 25.82260 646 ft 16 kts 15°
2026-05-06 18:18 66.56534 25.82430 649 ft 16 kts 37°
2026-05-06 18:18 66.56616 25.82585 648 ft 14 kts 37°
2026-05-06 18:18 66.56683 25.82709 649 ft 11 kts 37°
2026-05-06 18:18 66.56740 25.82816 651 ft 8 kts 37°
2026-05-06 18:19 66.56796 25.82921 652 ft 16 kts 37°
2026-05-06 18:19 66.56880 25.83079 652 ft 14 kts 37°
2026-05-06 18:19 66.56938 25.83174 649 ft 5 kts 349°
2026-05-06 18:19 66.56951 25.83164 650 ft 7 kts 345°
2026-05-06 18:20 66.57044 25.83131 654 ft 13 kts 353°
2026-05-06 18:20 66.57104 25.83117 654 ft 3 kts 36°
2026-05-06 18:20 66.57110 25.83171 653 ft 0 kts 82°